Location: *
(43.9905°S, 176.4941°W)
Time: 18:17:23
(UTC+00:00)

Cosmos 1455 Rocket - Pass Details

Date: 08 December 2019
Orbit: 605 x 629 km, 82.5° (Epoch: 22 January)

Event Time Altitude Azimuth Distance (km) Brightness Sun altitude
Exits shadow 09:31:34 30° 1° (N) 1,147 3.9 -17.3°
Maximum altitude 09:33:46 78° 83° (E) 656 3.0 -17.5°
Drops below altitude 10° 09:38:18 10° 169° (S) 2,036 6.4 -17.9°
Sets 09:40:33 0° 170° (S) 2,948 7.4 -18.1°
